Time,TemperatureF,DewpointF,PressureIn,WindDirection,WindDirectionDegrees,WindSpeedMPH,WindSpeedGustMPH,Humidity,HourlyPrecipIn,Conditions,Clouds,dailyrainin,SoftwareType,DateUTC
2013-06-17 00:00:00,69.1,63.4,29.91,South,188,2.0,2.0,82,0.00,,,0.00,Wunderground v.1.15,2013-06-17 04:00:00,
2013-06-17 00:05:00,69.1,63.4,29.90,South,188,1.0,2.0,82,0.00,,,0.00,Wunderground v.1.15,2013-06-17 04:05:00,
2013-06-17 00:10:00,68.9,63.2,29.90,South,188,0.0,2.0,82,0.00,,,0.00,Wunderground v.1.15,2013-06-17 04:10:00,
2013-06-17 00:20:00,68.8,63.1,29.90,SSW,197,1.0,4.0,82,0.00,,,0.00,Wunderground v.1.15,2013-06-17 04:20:00,
2013-06-17 00:30:00,68.6,63.2,29.90,SSW,197,1.0,1.0,83,0.00,,,0.00,Wunderground v.1.15,2013-06-17 04:30:00,
2013-06-17 00:40:00,68.6,62.9,29.90,SSW,197,0.0,1.0,82,0.00,,,0.00,Wunderground v.1.15,2013-06-17 04:40:00,
2013-06-17 00:45:00,68.6,63.2,29.90,SSW,197,0.0,0.0,83,0.00,,,0.00,Wunderground v.1.15,2013-06-17 04:45:00,
2013-06-17 00:50:00,68.6,62.9,29.90,SSW,197,0.0,0.0,82,0.00,,,0.00,Wunderground v.1.15,2013-06-17 04:50:00,
2013-06-17 01:05:00,68.6,63.2,29.90,SSW,197,0.0,0.0,83,0.00,,,0.00,Wunderground v.1.15,2013-06-17 05:05:00,
2013-06-17 01:10:00,68.4,63.0,29.90,SSW,197,0.0,0.0,83,0.00,,,0.00,Wunderground v.1.15,2013-06-17 05:10:00,
2013-06-17 01:15:00,68.6,62.9,29.90,SSW,197,0.0,1.0,82,0.00,,,0.00,Wunderground v.1.15,2013-06-17 05:15:00,
2013-06-17 01:20:00,68.8,63.1,29.90,SSW,197,0.0,1.0,82,0.00,,,0.00,Wunderground v.1.15,2013-06-17 05:20:00,
2013-06-17 01:25:00,68.9,62.5,29.90,SSW,197,1.0,2.0,80,0.00,,,0.00,Wunderground v.1.15,2013-06-17 05:25:00,
2013-06-17 01:35:00,69.6,62.4,29.90,SSW,197,1.0,1.0,78,0.00,,,0.00,Wunderground v.1.15,2013-06-17 05:35:00,
2013-06-17 01:45:00,69.6,62.8,29.90,SSW,197,1.0,1.0,79,0.00,,,0.00,Wunderground v.1.15,2013-06-17 05:45:00,
2013-06-17 01:50:00,69.3,62.9,29.90,SSW,197,1.0,1.0,80,0.00,,,0.00,Wunderground v.1.15,2013-06-17 05:50:00,
2013-06-17 02:00:00,68.1,63.4,29.90,SSW,197,1.0,1.0,85,0.00,,,0.00,Wunderground v.1.15,2013-06-17 06:00:00,
2013-06-17 02:10:00,67.6,62.9,29.90,SSW,197,0.0,1.0,85,0.00,,,0.00,Wunderground v.1.15,2013-06-17 06:10:00,
2013-06-17 02:20:00,67.6,62.9,29.90,SSW,197,1.0,1.0,85,0.00,,,0.00,Wunderground v.1.15,2013-06-17 06:20:00,
2013-06-17 02:30:00,67.6,62.6,29.90,SSW,197,0.0,0.0,84,0.00,,,0.00,Wunderground v.1.15,2013-06-17 06:30:00,
2013-06-17 02:40:00,67.4,63.1,29.90,SSW,197,0.0,1.0,86,0.00,,,0.00,Wunderground v.1.15,2013-06-17 06:40:00,
2013-06-17 02:45:00,67.4,62.7,29.90,SSW,197,1.0,2.0,85,0.00,,,0.00,Wunderground v.1.15,2013-06-17 06:45:00,
2013-06-17 02:55:00,68.1,62.4,29.90,SSW,197,2.0,2.0,82,0.00,,,0.00,Wunderground v.1.15,2013-06-17 06:55:00,
2013-06-17 03:00:00,68.1,62.7,29.90,SSW,197,1.0,2.0,83,0.00,,,0.00,Wunderground v.1.15,2013-06-17 07:00:00,
2013-06-17 03:10:00,67.4,63.1,29.90,SSW,197,1.0,1.0,86,0.00,,,0.00,Wunderground v.1.15,2013-06-17 07:10:00,
2013-06-17 03:15:00,66.9,62.9,29.90,SSW,197,1.0,1.0,87,0.00,,,0.00,Wunderground v.1.15,2013-06-17 07:15:00,
2013-06-17 03:25:00,66.6,62.9,29.90,SSW,197,1.0,2.0,88,0.00,,,0.00,Wunderground v.1.15,2013-06-17 07:25:00,
2013-06-17 03:30:00,66.4,62.7,29.90,SSW,197,0.0,0.0,88,0.00,,,0.00,Wunderground v.1.15,2013-06-17 07:30:00,
2013-06-17 03:35:00,66.4,62.7,29.90,SSW,197,0.0,0.0,88,0.00,,,0.00,Wunderground v.1.15,2013-06-17 07:35:00,
2013-06-17 03:45:00,66.3,63.0,29.90,SSW,197,0.0,0.0,89,0.00,,,0.00,Wunderground v.1.15,2013-06-17 07:45:00,
2013-06-17 03:50:00,66.3,62.6,29.90,SSW,197,1.0,1.0,88,0.00,,,0.00,Wunderground v.1.15,2013-06-17 07:50:00,
2013-06-17 04:00:00,66.3,62.6,29.90,SSW,197,0.0,1.0,88,0.00,,,0.00,Wunderground v.1.15,2013-06-17 08:00:00,
2013-06-17 04:10:00,66.3,63.0,29.90,SSW,197,2.0,4.0,89,0.00,,,0.00,Wunderground v.1.15,2013-06-17 08:10:00,
2013-06-17 04:15:00,66.1,62.8,29.90,SSW,197,2.0,4.0,89,0.00,,,0.00,Wunderground v.1.15,2013-06-17 08:15:00,
2013-06-17 04:25:00,65.9,62.6,29.91,SSW,197,1.0,2.0,89,0.00,,,0.00,Wunderground v.1.15,2013-06-17 08:25:00,
2013-06-17 04:30:00,65.9,62.6,29.91,SSW,197,2.0,4.0,89,0.00,,,0.00,Wunderground v.1.15,2013-06-17 08:30:00,
2013-06-17 04:40:00,66.1,62.4,29.91,SSW,197,2.0,2.0,88,0.00,,,0.00,Wunderground v.1.15,2013-06-17 08:40:00,
2013-06-17 04:45:00,66.3,62.6,29.91,SSW,197,2.0,2.0,88,0.00,,,0.00,Wunderground v.1.15,2013-06-17 08:45:00,
2013-06-17 04:55:00,66.6,62.6,29.91,SSW,197,1.0,2.0,87,0.00,,,0.00,Wunderground v.1.15,2013-06-17 08:55:00,
2013-06-17 05:00:00,66.8,62.8,29.91,SSW,197,1.0,1.0,87,0.00,,,0.00,Wunderground v.1.15,2013-06-17 09:00:00,
2013-06-17 05:05:00,66.8,62.8,29.91,SSW,197,0.0,1.0,87,0.00,,,0.00,Wunderground v.1.15,2013-06-17 09:05:00,
2013-06-17 05:10:00,66.8,62.8,29.91,SSW,197,0.0,0.0,87,0.00,,,0.00,Wunderground v.1.15,2013-06-17 09:10:00,
2013-06-17 05:20:00,66.3,63.0,29.92,SSW,197,0.0,0.0,89,0.00,,,0.00,Wunderground v.1.15,2013-06-17 09:20:00,
2013-06-17 05:25:00,65.9,62.6,29.92,SSW,197,0.0,0.0,89,0.00,,,0.00,Wunderground v.1.15,2013-06-17 09:25:00,
2013-06-17 05:30:00,65.9,62.9,29.92,SSW,197,0.0,0.0,90,0.00,,,0.00,Wunderground v.1.15,2013-06-17 09:30:00,
2013-06-17 05:40:00,65.8,62.8,29.92,SSW,197,0.0,1.0,90,0.00,,,0.00,Wunderground v.1.15,2013-06-17 09:40:00,
2013-06-17 05:45:00,65.8,62.8,29.92,SSW,197,0.0,1.0,90,0.00,,,0.00,Wunderground v.1.15,2013-06-17 09:45:00,
2013-06-17 05:55:00,66.3,63.0,29.92,SSW,197,0.0,0.0,89,0.00,,,0.00,Wunderground v.1.15,2013-06-17 09:55:00,
2013-06-17 06:05:00,66.6,63.3,29.92,SSW,197,0.0,2.0,89,0.00,,,0.00,Wunderground v.1.15,2013-06-17 10:05:00,
2013-06-17 06:10:00,66.8,63.1,29.92,SSW,197,0.0,1.0,88,0.00,,,0.00,Wunderground v.1.15,2013-06-17 10:10:00,
2013-06-17 06:20:00,67.1,63.7,29.92,SSW,197,1.0,1.0,89,0.00,,,0.00,Wunderground v.1.15,2013-06-17 10:20:00,
2013-06-17 06:25:00,67.1,63.7,29.91,SSW,197,1.0,2.0,89,0.00,,,0.00,Wunderground v.1.15,2013-06-17 10:25:00,
2013-06-17 06:35:00,67.3,63.6,29.92,SSW,197,0.0,1.0,88,0.00,,,0.00,Wunderground v.1.15,2013-06-17 10:35:00,
2013-06-17 06:45:00,67.3,63.6,29.92,SSW,197,0.0,1.0,88,0.00,,,0.00,Wunderground v.1.15,2013-06-17 10:45:00,
2013-06-17 06:50:00,67.4,63.4,29.92,SSW,197,0.0,0.0,87,0.00,,,0.00,Wunderground v.1.15,2013-06-17 10:50:00,
2013-06-17 06:55:00,67.6,63.6,29.92,SSW,197,0.0,0.0,87,0.00,,,0.00,Wunderground v.1.15,2013-06-17 10:55:00,
2013-06-17 07:00:00,67.6,63.6,29.92,SSW,197,0.0,0.0,87,0.00,,,0.00,Wunderground v.1.15,2013-06-17 11:00:00,
2013-06-17 07:10:00,68.1,63.8,29.92,SSW,197,0.0,1.0,86,0.00,,,0.00,Wunderground v.1.15,2013-06-17 11:10:00,
2013-06-17 07:15:00,68.6,63.9,29.92,SSW,197,1.0,4.0,85,0.00,,,0.00,Wunderground v.1.15,2013-06-17 11:15:00,
2013-06-17 07:25:00,69.8,63.7,29.92,SSW,197,2.0,5.0,81,0.00,,,0.00,Wunderground v.1.15,2013-06-17 11:25:00,
2013-06-17 07:35:00,70.4,63.6,29.92,SSE,165,4.0,5.0,79,0.00,,,0.00,Wunderground v.1.15,2013-06-17 11:35:00,
2013-06-17 07:45:00,71.1,63.9,29.92,South,175,3.0,4.0,78,0.00,,,0.00,Wunderground v.1.15,2013-06-17 11:45:00,
2013-06-17 07:50:00,71.3,63.7,29.92,South,175,2.0,4.0,77,0.00,,,0.00,Wunderground v.1.15,2013-06-17 11:50:00,
2013-06-17 07:55:00,71.6,64.0,29.93,South,179,3.0,3.0,77,0.00,,,0.00,Wunderground v.1.15,2013-06-17 11:55:00,
2013-06-17 08:05:00,72.0,64.8,29.93,South,186,4.0,5.0,78,0.00,,,0.00,Wunderground v.1.15,2013-06-17 12:05:00,
2013-06-17 08:10:00,72.0,64.0,29.93,SSW,194,5.0,5.0,76,0.00,,,0.00,Wunderground v.1.15,2013-06-17 12:10:00,
2013-06-17 08:20:00,72.0,64.0,29.93,SSW,201,4.0,8.0,76,0.00,,,0.00,Wunderground v.1.15,2013-06-17 12:20:00,
2013-06-17 08:25:00,72.2,64.6,29.93,SSW,200,4.0,8.0,77,0.00,,,0.00,Wunderground v.1.15,2013-06-17 12:25:00,
2013-06-17 08:35:00,72.7,64.3,29.93,SW,219,2.0,3.0,75,0.00,,,0.00,Wunderground v.1.15,2013-06-17 12:35:00,
2013-06-17 08:40:00,73.0,65.4,29.93,SSW,192,3.0,5.0,77,0.00,,,0.00,Wunderground v.1.15,2013-06-17 12:40:00,
2013-06-17 08:45:00,73.4,64.6,29.93,SSW,195,4.0,5.0,74,0.00,,,0.00,Wunderground v.1.15,2013-06-17 12:45:00,
2013-06-17 08:55:00,73.9,65.1,29.93,SSE,162,4.0,5.0,74,0.00,,,0.00,Wunderground v.1.15,2013-06-17 12:55:00,
2013-06-17 09:00:00,74.4,66.0,29.93,South,188,4.0,5.0,75,0.00,,,0.00,Wunderground v.1.15,2013-06-17 13:00:00,
2013-06-17 09:10:00,75.6,66.7,29.93,South,185,4.0,6.0,74,0.00,,,0.00,Wunderground v.1.15,2013-06-17 13:10:00,
2013-06-17 09:20:00,76.5,66.4,29.94,WSW,238,3.0,3.0,71,0.00,,,0.00,Wunderground v.1.15,2013-06-17 13:20:00,
2013-06-17 09:30:00,77.4,67.7,29.93,South,186,4.0,4.0,72,0.00,,,0.00,Wunderground v.1.15,2013-06-17 13:30:00,
2013-06-17 09:35:00,77.8,67.2,29.93,SSE,166,5.0,5.0,70,0.00,,,0.00,Wunderground v.1.15,2013-06-17 13:35:00,
2013-06-17 09:45:00,78.5,67.5,29.92,SSW,204,3.0,8.0,69,0.00,,,0.00,Wunderground v.1.15,2013-06-17 13:45:00,
2013-06-17 09:50:00,78.5,64.9,29.92,WNW,295,3.0,5.0,63,0.00,,,0.00,Wunderground v.1.15,2013-06-17 13:50:00,
2013-06-17 09:55:00,78.5,64.9,29.92,West,263,5.0,5.0,63,0.00,,,0.00,Wunderground v.1.15,2013-06-17 13:55:00,
2013-06-17 10:00:00,78.5,64.9,29.92,SSW,213,6.0,7.0,63,0.00,,,0.00,Wunderground v.1.15,2013-06-17 14:00:00,
2013-06-17 10:05:00,78.5,64.9,29.92,WSW,255,4.0,8.0,63,0.00,,,0.00,Wunderground v.1.15,2013-06-17 14:05:00,
2013-06-17 10:10:00,79.1,66.8,29.92,WSW,248,4.0,5.0,66,0.00,,,0.00,Wunderground v.1.15,2013-06-17 14:10:00,
2013-06-17 10:15:00,79.3,65.1,29.91,West,273,4.0,5.0,62,0.00,,,0.00,Wunderground v.1.15,2013-06-17 14:15:00,
2013-06-17 10:25:00,79.6,65.4,29.92,SW,232,4.0,7.0,62,0.00,,,0.00,Wunderground v.1.15,2013-06-17 14:25:00,
2013-06-17 10:30:00,79.8,65.6,29.91,West,277,4.0,4.0,62,0.00,,,0.00,Wunderground v.1.15,2013-06-17 14:30:00,
2013-06-17 10:35:00,80.2,66.0,29.91,SSE,158,4.0,4.0,62,0.00,,,0.00,Wunderground v.1.15,2013-06-17 14:35:00,
2013-06-17 10:40:00,80.2,66.0,29.92,West,269,5.0,5.0,62,0.00,,,0.00,Wunderground v.1.15,2013-06-17 14:40:00,
2013-06-17 10:50:00,79.3,65.1,29.91,WSW,242,5.0,5.0,62,0.00,,,0.00,Wunderground v.1.15,2013-06-17 14:50:00,
2013-06-17 10:55:00,79.6,65.4,29.91,West,259,5.0,7.0,62,0.00,,,0.00,Wunderground v.1.15,2013-06-17 14:55:00,
2013-06-17 11:05:00,80.6,65.4,29.91,WSW,251,6.0,6.0,60,0.00,,,0.00,Wunderground v.1.15,2013-06-17 15:05:00,
2013-06-17 11:15:00,80.4,66.2,29.91,NW,319,5.0,6.0,62,0.00,,,0.00,Wunderground v.1.15,2013-06-17 15:15:00,
2013-06-17 11:25:00,79.3,65.1,29.92,SSW,194,5.0,7.0,62,0.00,,,0.00,Wunderground v.1.15,2013-06-17 15:25:00,
2013-06-17 11:30:00,79.4,65.7,29.91,WSW,244,4.0,8.0,63,0.00,,,0.00,Wunderground v.1.15,2013-06-17 15:30:00,
2013-06-17 11:40:00,79.8,65.6,29.91,South,179,4.0,8.0,62,0.00,,,0.00,Wunderground v.1.15,2013-06-17 15:40:00,
2013-06-17 11:45:00,80.0,66.7,29.91,South,173,3.0,8.0,64,0.00,,,0.00,Wunderground v.1.15,2013-06-17 15:45:00,
2013-06-17 11:55:00,81.3,67.0,29.91,SSW,192,6.0,11.0,62,0.00,,,0.00,Wunderground v.1.15,2013-06-17 15:55:00,
2013-06-17 12:05:00,82.7,66.9,29.91,SSW,198,5.0,6.0,59,0.00,,,0.00,Wunderground v.1.15,2013-06-17 16:05:00,
2013-06-17 12:15:00,82.1,64.8,29.91,WSW,239,5.0,7.0,56,0.00,,,0.00,Wunderground v.1.15,2013-06-17 16:15:00,
2013-06-17 12:20:00,82.1,64.8,29.91,WNW,284,5.0,9.0,56,0.00,,,0.00,Wunderground v.1.15,2013-06-17 16:20:00,
2013-06-17 12:30:00,83.3,67.0,29.91,West,260,6.0,6.0,58,0.00,,,0.00,Wunderground v.1.15,2013-06-17 16:30:00,
2013-06-17 12:35:00,83.3,66.0,29.90,WNW,284,5.0,6.0,56,0.00,,,0.00,Wunderground v.1.15,2013-06-17 16:35:00,
2013-06-17 12:45:00,82.7,65.9,29.91,West,265,7.0,7.0,57,0.00,,,0.00,Wunderground v.1.15,2013-06-17 16:45:00,
2013-06-17 12:55:00,82.9,67.1,29.91,West,261,5.0,6.0,59,0.00,,,0.00,Wunderground v.1.15,2013-06-17 16:55:00,
2013-06-17 13:00:00,82.9,66.6,29.91,SW,225,5.0,6.0,58,0.00,,,0.00,Wunderground v.1.15,2013-06-17 17:00:00,
2013-06-17 13:10:00,82.9,67.1,29.90,WSW,256,5.0,9.0,59,0.00,,,0.00,Wunderground v.1.15,2013-06-17 17:10:00,
2013-06-17 13:15:00,82.9,66.6,29.91,South,176,6.0,9.0,58,0.00,,,0.00,Wunderground v.1.15,2013-06-17 17:15:00,
2013-06-17 13:20:00,82.7,66.4,29.91,WSW,243,5.0,10.0,58,0.00,,,0.00,Wunderground v.1.15,2013-06-17 17:20:00,
2013-06-17 13:30:00,83.3,66.0,29.91,West,264,7.0,8.0,56,0.00,,,0.00,Wunderground v.1.15,2013-06-17 17:30:00,
2013-06-17 13:35:00,83.8,66.9,29.90,West,267,8.0,9.0,57,0.00,,,0.00,Wunderground v.1.15,2013-06-17 17:35:00,
2013-06-17 13:45:00,84.0,66.1,29.90,West,264,8.0,9.0,55,0.00,,,0.00,Wunderground v.1.15,2013-06-17 17:45:00,
2013-06-17 13:50:00,84.2,66.3,29.90,SW,229,8.0,8.0,55,0.00,,,0.00,Wunderground v.1.15,2013-06-17 17:50:00,
2013-06-17 13:55:00,84.2,65.2,29.90,South,173,7.0,9.0,53,0.00,,,0.00,Wunderground v.1.15,2013-06-17 17:55:00,
2013-06-17 14:00:00,84.2,64.7,29.90,NNW,327,7.0,8.0,52,0.00,,,0.00,Wunderground v.1.15,2013-06-17 18:00:00,
2013-06-17 14:05:00,84.2,65.2,29.90,SE,140,7.0,8.0,53,0.00,,,0.00,Wunderground v.1.15,2013-06-17 18:05:00,
2013-06-17 14:15:00,84.6,65.6,29.90,WSW,242,8.0,8.0,53,0.00,,,0.00,Wunderground v.1.15,2013-06-17 18:15:00,
2013-06-17 14:20:00,84.8,65.2,29.89,WNW,294,7.0,9.0,52,0.00,,,0.00,Wunderground v.1.15,2013-06-17 18:20:00,
2013-06-17 14:25:00,84.8,64.7,29.89,NNW,344,6.0,9.0,51,0.00,,,0.00,Wunderground v.1.15,2013-06-17 18:25:00,
2013-06-17 14:35:00,84.6,64.5,29.89,WNW,284,5.0,12.0,51,0.00,,,0.00,Wunderground v.1.15,2013-06-17 18:35:00,
2013-06-17 14:40:00,85.2,65.6,29.89,West,269,7.0,7.0,52,0.00,,,0.00,Wunderground v.1.15,2013-06-17 18:40:00,
2013-06-17 14:45:00,85.4,65.2,29.89,WSW,241,7.0,9.0,51,0.00,,,0.00,Wunderground v.1.15,2013-06-17 18:45:00,
2013-06-17 14:55:00,85.8,66.7,29.88,WNW,288,7.0,7.0,53,0.00,,,0.00,Wunderground v.1.15,2013-06-17 18:55:00,
2013-06-17 15:00:00,85.8,64.4,29.88,West,270,5.0,5.0,49,0.00,,,0.00,Wunderground v.1.15,2013-06-17 19:00:00,
2013-06-17 15:10:00,85.4,65.8,29.88,NW,319,7.0,7.0,52,0.00,,,0.00,Wunderground v.1.15,2013-06-17 19:10:00,
2013-06-17 15:20:00,84.8,65.2,29.88,NNW,338,5.0,6.0,52,0.00,,,0.00,Wunderground v.1.15,2013-06-17 19:20:00,
2013-06-17 15:30:00,84.6,65.6,29.88,WSW,246,4.0,5.0,53,0.00,,,0.00,Wunderground v.1.15,2013-06-17 19:30:00,
2013-06-17 15:40:00,85.0,64.3,29.87,SW,227,6.0,11.0,50,0.00,,,0.00,Wunderground v.1.15,2013-06-17 19:40:00,
2013-06-17 15:50:00,85.2,63.9,29.86,SW,214,5.0,5.0,49,0.00,,,0.00,Wunderground v.1.15,2013-06-17 19:50:00,
2013-06-17 16:00:00,85.4,64.1,29.86,West,262,5.0,11.0,49,0.00,,,0.00,Wunderground v.1.15,2013-06-17 20:00:00,
2013-06-17 16:10:00,85.8,63.2,29.86,WSW,239,6.0,11.0,47,0.00,,,0.00,Wunderground v.1.15,2013-06-17 20:10:00,
2013-06-17 16:20:00,85.6,63.7,29.85,WSW,251,6.0,8.0,48,0.00,,,0.00,Wunderground v.1.15,2013-06-17 20:20:00,
2013-06-17 16:25:00,85.6,63.1,29.85,WSW,246,8.0,8.0,47,0.00,,,0.00,Wunderground v.1.15,2013-06-17 20:25:00,
2013-06-17 16:35:00,85.2,63.3,29.85,WSW,237,5.0,7.0,48,0.00,,,0.00,Wunderground v.1.15,2013-06-17 20:35:00,
2013-06-17 16:40:00,84.8,62.3,29.85,WSW,258,5.0,5.0,47,0.00,,,0.00,Wunderground v.1.15,2013-06-17 20:40:00,
2013-06-17 16:50:00,84.8,62.9,29.85,West,259,6.0,6.0,48,0.00,,,0.00,Wunderground v.1.15,2013-06-17 20:50:00,
2013-06-17 16:55:00,84.6,61.5,29.85,NW,322,6.0,6.0,46,0.00,,,0.00,Wunderground v.1.15,2013-06-17 20:55:00,
2013-06-17 17:00:00,84.8,62.9,29.85,West,259,5.0,7.0,48,0.00,,,0.00,Wunderground v.1.15,2013-06-17 21:00:00,
2013-06-17 17:10:00,84.6,62.7,29.85,WSW,254,5.0,8.0,48,0.00,,,0.00,Wunderground v.1.15,2013-06-17 21:10:00,
2013-06-17 17:20:00,84.4,63.2,29.85,WSW,246,5.0,7.0,49,0.00,,,0.00,Wunderground v.1.15,2013-06-17 21:20:00,
2013-06-17 17:25:00,84.2,63.5,29.85,WSW,241,5.0,5.0,50,0.00,,,0.00,Wunderground v.1.15,2013-06-17 21:25:00,
2013-06-17 17:30:00,84.2,63.5,29.85,WSW,240,5.0,8.0,50,0.00,,,0.00,Wunderground v.1.15,2013-06-17 21:30:00,
2013-06-17 17:40:00,83.8,63.7,29.85,SW,231,5.0,5.0,51,0.00,,,0.00,Wunderground v.1.15,2013-06-17 21:40:00,
2013-06-17 17:45:00,83.6,63.0,29.85,WSW,249,6.0,6.0,50,0.00,,,0.00,Wunderground v.1.15,2013-06-17 21:45:00,
2013-06-17 17:55:00,83.6,63.0,29.85,WSW,258,6.0,6.0,50,0.00,,,0.00,Wunderground v.1.15,2013-06-17 21:55:00,
2013-06-17 18:00:00,83.6,64.1,29.85,SSE,156,5.0,5.0,52,0.00,,,0.00,Wunderground v.1.15,2013-06-17 22:00:00,
2013-06-17 18:10:00,83.6,62.4,29.86,WSW,246,6.0,9.0,49,0.00,,,0.00,Wunderground v.1.15,2013-06-17 22:10:00,
2013-06-17 18:15:00,84.0,63.4,29.85,WSW,244,5.0,9.0,50,0.00,,,0.00,Wunderground v.1.15,2013-06-17 22:15:00,
2013-06-17 18:25:00,83.8,63.2,29.86,WSW,247,4.0,7.0,50,0.00,,,0.00,Wunderground v.1.15,2013-06-17 22:25:00,
2013-06-17 18:30:00,83.6,63.0,29.86,WSW,246,6.0,6.0,50,0.00,,,0.00,Wunderground v.1.15,2013-06-17 22:30:00,
2013-06-17 18:40:00,84.0,64.5,29.85,WNW,287,2.0,6.0,52,0.00,,,0.00,Wunderground v.1.15,2013-06-17 22:40:00,
2013-06-17 18:50:00,83.6,63.6,29.85,NNW,341,3.0,3.0,51,0.00,,,0.00,Wunderground v.1.15,2013-06-17 22:50:00,
2013-06-17 18:55:00,83.3,63.8,29.85,NNW,341,3.0,3.0,52,0.00,,,0.00,Wunderground v.1.15,2013-06-17 22:55:00,
2013-06-17 19:05:00,82.9,64.0,29.85,WSW,256,4.0,4.0,53,0.00,,,0.00,Wunderground v.1.15,2013-06-17 23:05:00,
2013-06-17 19:15:00,82.9,64.0,29.85,NW,322,3.0,4.0,53,0.00,,,0.00,Wunderground v.1.15,2013-06-17 23:15:00,
2013-06-17 19:20:00,82.9,63.5,29.85,NW,323,4.0,4.0,52,0.00,,,0.00,Wunderground v.1.15,2013-06-17 23:20:00,
2013-06-17 19:25:00,82.9,64.0,29.85,North,350,4.0,4.0,53,0.00,,,0.00,Wunderground v.1.15,2013-06-17 23:25:00,
2013-06-17 19:35:00,82.7,63.3,29.85,North,350,3.0,5.0,52,0.00,,,0.00,Wunderground v.1.15,2013-06-17 23:35:00,
2013-06-17 19:40:00,82.5,63.1,29.85,NW,325,3.0,5.0,52,0.00,,,0.00,Wunderground v.1.15,2013-06-17 23:40:00,
2013-06-17 19:50:00,82.1,62.7,29.85,NNW,333,3.0,3.0,52,0.00,,,0.00,Wunderground v.1.15,2013-06-17 23:50:00,
2013-06-17 20:00:00,81.5,63.8,29.86,NNW,333,2.0,2.0,55,0.00,,,0.00,Wunderground v.1.15,2013-06-18 00:00:00,
2013-06-17 20:10:00,80.7,62.0,29.86,NNW,333,2.0,2.0,53,0.00,,,0.00,Wunderground v.1.15,2013-06-18 00:10:00,
2013-06-17 20:20:00,80.6,60.8,29.86,NNW,333,2.0,3.0,51,0.00,,,0.00,Wunderground v.1.15,2013-06-18 00:20:00,
2013-06-17 20:30:00,80.4,61.2,29.86,NNW,333,0.0,1.0,52,0.00,,,0.00,Wunderground v.1.15,2013-06-18 00:30:00,
2013-06-17 20:40:00,79.4,62.3,29.87,NNW,333,1.0,1.0,56,0.00,,,0.00,Wunderground v.1.15,2013-06-18 00:40:00,
2013-06-17 20:45:00,78.7,62.2,29.87,NNW,333,2.0,2.0,57,0.00,,,0.00,Wunderground v.1.15,2013-06-18 00:45:00,
2013-06-17 20:55:00,78.0,61.5,29.86,NNW,333,1.0,2.0,57,0.00,,,0.00,Wunderground v.1.15,2013-06-18 00:55:00,
2013-06-17 21:05:00,77.4,61.9,29.87,NNW,333,1.0,2.0,59,0.00,,,0.00,Wunderground v.1.15,2013-06-18 01:05:00,
2013-06-17 21:20:00,75.8,62.8,29.88,NNW,333,1.0,2.0,64,0.00,,,0.00,Wunderground v.1.15,2013-06-18 01:20:00,
2013-06-17 21:25:00,75.5,63.8,29.88,NNW,333,1.0,2.0,67,0.00,,,0.00,Wunderground v.1.15,2013-06-18 01:25:00,
2013-06-17 21:30:00,75.1,65.5,29.88,NNW,333,1.0,2.0,72,0.00,,,0.00,Wunderground v.1.15,2013-06-18 01:30:00,
2013-06-17 21:40:00,73.9,65.1,29.88,NNW,333,1.0,1.0,74,0.00,,,0.00,Wunderground v.1.15,2013-06-18 01:40:00,
2013-06-17 21:45:00,73.5,65.1,29.88,NNW,333,0.0,1.0,75,0.00,,,0.00,Wunderground v.1.15,2013-06-18 01:45:00,
2013-06-17 21:55:00,73.2,64.4,29.89,NNW,333,0.0,0.0,74,0.00,,,0.00,Wunderground v.1.15,2013-06-18 01:55:00,
2013-06-17 22:00:00,73.0,64.6,29.89,NNW,333,0.0,1.0,75,0.00,,,0.00,Wunderground v.1.15,2013-06-18 02:00:00,
2013-06-17 22:10:00,72.7,65.8,29.89,NNW,333,0.0,0.0,79,0.00,,,0.00,Wunderground v.1.15,2013-06-18 02:10:00,
2013-06-17 22:15:00,72.5,65.6,29.89,NNW,333,0.0,1.0,79,0.00,,,0.00,Wunderground v.1.15,2013-06-18 02:15:00,
2013-06-17 22:20:00,72.2,66.0,29.89,NNW,333,1.0,1.0,81,0.00,,,0.00,Wunderground v.1.15,2013-06-18 02:20:00,
2013-06-17 22:35:00,71.6,64.4,29.89,NNW,333,1.0,2.0,78,0.00,,,0.00,Wunderground v.1.15,2013-06-18 02:35:00,
2013-06-17 22:40:00,71.8,64.6,29.89,NNW,333,1.0,2.0,78,0.00,,,0.00,Wunderground v.1.15,2013-06-18 02:40:00,
2013-06-17 22:50:00,71.6,64.4,29.90,NNW,333,0.0,0.0,78,0.00,,,0.00,Wunderground v.1.15,2013-06-18 02:50:00,
2013-06-17 22:55:00,71.3,64.8,29.89,NNW,333,0.0,0.0,80,0.00,,,0.00,Wunderground v.1.15,2013-06-18 02:55:00,
2013-06-17 23:00:00,71.3,64.8,29.89,NNW,333,0.0,0.0,80,0.00,,,0.00,Wunderground v.1.15,2013-06-18 03:00:00,
2013-06-17 23:10:00,71.3,64.8,29.89,NNW,333,0.0,0.0,80,0.00,,,0.00,Wunderground v.1.15,2013-06-18 03:10:00,
2013-06-17 23:15:00,71.3,64.8,29.89,NNW,333,0.0,0.0,80,0.00,,,0.00,Wunderground v.1.15,2013-06-18 03:15:00,
2013-06-17 23:25:00,71.0,65.2,29.89,NNW,333,0.0,0.0,82,0.00,,,0.00,Wunderground v.1.15,2013-06-18 03:25:00,
2013-06-17 23:30:00,70.8,65.4,29.89,NNW,333,0.0,2.0,83,0.00,,,0.00,Wunderground v.1.15,2013-06-18 03:30:00,
2013-06-17 23:35:00,70.6,65.5,29.89,NNW,333,1.0,2.0,84,0.00,,,0.00,Wunderground v.1.15,2013-06-18 03:35:00,
2013-06-17 23:50:00,69.9,65.2,29.89,NNW,333,1.0,1.0,85,0.00,,,0.00,Wunderground v.1.15,2013-06-18 03:50:00,
2013-06-17 23:55:00,69.8,65.4,29.89,NNW,333,1.0,1.0,86,0.00,,,0.00,Wunderground v.1.15,2013-06-18 03:55:00,